Temp
84 85 85 79 68 71 63 66 71 70 69 73 78 74 68 69 67 62 77 81 82 82 85 85 82 83 83 83 83 83 83 83 83 83 83 83 83 84 83 83 84 84 84 84 84 84 83 83 83
87 83 82 75 69 64 63 71 69 72 74 75 75 75 69 66 73 72 75 80 82 83 84 84 81 83 83 83 83 83 83 83 83 83 83 83 83 84 84 84 84 84 84 84 84 83 83 83 83
86 85 76 72 70 66 65 72 75 72 77 77 71 74 71 65 73 72 79 81 82 83 84 85 82 83 83 83 83 83 83 83 83 83 83 83 83 84 84 84 84 83 83 83 84 84 84 83 83
83 81 78 71 68 71 72 76 76 74 76 75 73 65 72 76 73 76 79 81 82 82 84 84 83 83 83 83 83 83 83 83 83 83 83 84 84 84 83 83 83 83 83 83 83 84 84 84 83
86 81 74 71 71 73 76 77 78 73 73 74 74 65 65 73 75 75 77 77 81 82 84 85 82 83 82 82 82 83 83 83 83 83 83 84 83 83 83 83 83 83 83 83 83 84 84 84 84
79 80 74 70 70 73 76 79 77 74 73 73 70 70 66 73 74 75 77 76 82 82 83 85 83 82 82 83 83 83 83 83 83 83 83 83 83 83 82 83 83 83 83 83 83 83 84 84 84
78 78 72 72 71 72 74 80 76 74 73 72 77 66 66 71 77 77 76 80 78 77 82 84 85 85 83 82 83 83 83 83 83 83 83 83 83 83 83 83 82 83 83 83 83 83 84 83 83
83 81 72 74 72 71 76 77 78 76 71 80 80 68 64 72 79 78 77 77 76 79 83 83 83 83 84 86 82 83 83 83 83 83 83 83 83 83 82 82 82 82 83 84 84 84 84 83 82
85 77 72 72 73 74 78 74 77 79 75 74 75 76 78 76 76 75 72 74 79 79 81 82 83 82 83 84 85 83 83 83 82 83 81 84 88 88 87 84 82 83 84 84 83 84 83 83 83
81 76 76 82 82 76 78 77 75 73 72 67 69 74 76 76 74 72 76 76 75 76 80 83 82 83 84 86 83 84 86 87 86 85 83 87 85 85 86 85 81 81 81 81 82 81 81 83 89
81 78 81 81 83 83 78 76 78 74 70 70 67 68 74 75 75 74 78 77 79 81 83 82 83 82 85 83 85 86 86 87 87 83 83 83 85 86 88 87 88 85 84 88 87 87 89 85 88
79 81 83 82 83 80 77 79 75 75 74 78 76 75 74 74 74 76 76 78 77 80 82 83 82 82 82 85 86 86 86 87 88 87 83 84 87 86 85 85 86 84 86 85 86 88 86 88 86
81 80 81 82 81 80 80 76 73 69 74 79 75 73 74 76 74 77 80 81 79 80 81 83 82 81 82 81 84 83 85 87 86 87 85 86 86 83 85 85 86 85 85 86 85 86 88 87 87
81 80 79 81 79 78 76 72 75 67 73 71 70 72 76 76 77 78 79 79 79 81 82 84 82 82 82 81 81 83 85 85 87 87 87 85 86 84 85 84 85 86 84 84 85 84 85 86 88
81 76 78 78 78 76 80 71 68 69 71 68 69 71 72 74 78 78 80 78 81 78 83 82 82 83 81 80 81 83 86 89 87 87 85 85 85 85 84 86 86 86 85 83 85 85 88 89 90
78 78 72 76 78 77 77 70 68 72 70 67 67 69 70 73 78 80 81 81 81 82 81 82 85 84 82 81 82 85 87 87 87 88 87 85 86 86 85 87 87 86 86 87 87 86 87 87 88
75 70 70 71 79 77 74 71 72 74 73 70 71 71 72 75 77 79 81 82 82 82 81 81 82 83 83 82 83 83 83 86 88 88 89 86 87 86 86 88 85 85 87 87 85 86 85 85 86
71 71 72 72 77 76 73 73 73 73 74 73 74 74 74 75 76 79 81 83 83 82 81 81 82 82 81 82 81 84 85 86 87 88 88 86 87 86 86 88 86 86 87 86 84 82 86 85 85
80 76 74 76 79 75 75 74 73 73 74 74 74 74 75 76 80 81 81 82 82 82 80 80 80 80 81 81 81 83 84 86 87 88 85 85 86 86 85 88 87 87 82 82 83 84 82 85 85
78 76 74 76 78 77 74 74 75 74 74 76 76 76 77 78 80 79 80 81 81 81 80 79 79 80 80 82 81 83 83 85 85 86 85 86 86 85 86 83 85 85 81 83 82 81 83 84 82
78 76 75 75 75 76 73 72 70 74 76 77 78 80 80 79 79 79 79 79 82 81 80 79 79 79 80 80 81 81 81 83 84 86 87 88 85 85 85 85 84 84 84 84 81 82 80 81 82
74 81 78 75 74 70 75 68 71 75 72 74 76 78 79 80 81 81 80 80 81 82 83 81 79 79 80 80 80 79 81 81 85 84 86 86 85 85 86 85 84 82 84 81 81 83 81 80 79
78 83 79 77 75 72 71 70 78 73 71 73 76 78 80 81 82 82 82 82 83 84 83 82 79 79 80 80 79 81 79 83 84 84 82 82 84 85 86 85 83 82 84 81 81 80 79 80 79
82 78 75 74 74 65 73 72 76 73 76 79 80 79 80 82 83 83 84 84 83 85 84 83 79 78 80 80 79 78 79 80 81 82 83 85 86 86 84 84 82 81 82 81 81 79 76 74 78
83 78 65 63 63 64 69 68 76 83 81 84 81 80 81 83 83 82 82 81 82 83 83 83 80 78 80 80 80 79 79 79 79 80 84 83 85 86 84 83 82 83 81 80 79 72 71 75 75
78 79 68 56 60 67 66 67 78 85 87 86 86 85 84 83 84 84 84 83 83 83 83 83 81 79 80 80 79 80 80 82 83 82 84 84 85 85 83 84 83 81 79 77 74 76 76 73 74
76 71 84 69 65 68 73 76 83 83 81 84 84 84 82 84 85 84 85 85 84 83 83 83 82 80 81 81 80 79 80 79 82 81 81 85 83 85 83 83 80 78 76 72 69 75 74 73 73
81 83 70 71 59 58 68 69 74 81 79 81 81 81 83 85 85 85 85 85 85 86 85 85 84 82 82 82 81 81 80 80 81 81 80 82 83 82 81 79 78 76 74 69 72 74 72 72 73
75 73 75 79 72 65 63 72 83 83 83 80 84 84 84 84 86 86 87 87 86 88 87 85 84 83 81 81 81 81 81 81 81 81 82 82 82 81 78 76 75 74 70 70 71 71 71 70 69
83 79 78 70 62 69 71 73 86 86 85 85 86 85 87 88 88 87 87 87 85 85 86 85 84 83 82 82 81 81 82 82 81 81 82 82 82 79 77 75 73 70 71 71 72 71 71 70 69
MSLP
1009.97 1010.13 1010.26 1010.26 1010.56 1009.64 1009.90 1010.32 1010.73 1010.88 1011.48 1012.04 1012.20 1012.58 1013.55 1014.18 1014.62 1015.72 1016.37 1016.44 1016.34 1016.48 1016.50 1016.40 1016.48 1016.45 1016.42 1016.45 1016.60 1016.61 1016.61 1016.58 1016.66 1016.76 1016.83 1016.85 1016.93 1017.06 1017.12 1017.20 1017.16 1017.15 1017.22 1017.31 1017.40 1017.47 1017.42 1017.43 1017.51
1009.81 1010.21 1009.98 1009.55 1009.39 1008.93 1009.62 1010.04 1010.33 1010.83 1011.59 1012.19 1012.62 1013.20 1013.71 1014.69 1015.18 1015.80 1016.09 1016.38 1016.21 1016.35 1016.46 1016.55 1016.68 1016.65 1016.74 1016.80 1016.75 1016.75 1016.78 1016.88 1017.01 1017.04 1017.11 1017.19 1017.25 1017.33 1017.37 1017.43 1017.46 1017.39 1017.40 1017.47 1017.46 1017.55 1017.65 1017.62 1017.59
1009.85 1009.68 1009.55 1009.20 1009.15 1008.80 1009.20 1009.68 1010.18 1011.21 1011.69 1011.96 1012.97 1013.74 1014.45 1015.39 1015.85 1016.15 1016.32 1016.42 1016.37 1016.37 1016.51 1016.53 1016.73 1016.85 1016.98 1016.97 1017.00 1017.16 1017.13 1017.22 1017.32 1017.35 1017.43 1017.46 1017.43 1017.51 1017.59 1017.66 1017.64 1017.64 1017.61 1017.57 1017.60 1017.56 1017.58 1017.59 1017.52
1009.70 1009.69 1009.56 1009.16 1008.76 1009.12 1009.17 1009.70 1010.43 1011.23 1011.96 1012.58 1013.16 1014.33 1015.22 1015.69 1016.08 1016.23 1016.58 1016.41 1016.59 1016.62 1016.72 1016.74 1016.73 1017.02 1017.21 1017.24 1017.37 1017.42 1017.40 1017.54 1017.56 1017.60 1017.70 1017.66 1017.75 1017.76 1017.76 1017.76 1017.86 1017.85 1017.80 1017.75 1017.72 1017.70 1017.66 1017.57 1017.46
1009.44 1009.05 1008.53 1008.47 1008.62 1009.06 1009.42 1009.97 1010.56 1011.16 1011.98 1012.76 1013.25 1014.56 1015.61 1016.28 1016.49 1016.58 1016.74 1016.69 1016.62 1016.87 1016.90 1016.92 1017.09 1017.24 1017.44 1017.51 1017.62 1017.63 1017.63 1017.75 1017.80 1017.75 1017.85 1017.93 1017.98 1017.89 1018.02 1018.07 1018.08 1018.12 1018.05 1018.01 1017.97 1017.83 1017.74 1017.56 1017.49
1008.83 1008.59 1008.04 1007.98 1008.54 1009.19 1009.77 1010.19 1010.78 1011.45 1012.31 1012.98 1013.60 1014.46 1015.97 1016.54 1016.69 1016.81 1016.96 1016.77 1016.74 1016.98 1017.16 1017.07 1017.31 1017.52 1017.72 1017.80 1017.87 1017.86 1017.92 1018.05 1018.11 1018.11 1018.08 1018.13 1018.19 1018.22 1018.21 1018.22 1018.24 1018.21 1018.11 1018.02 1018.02 1017.88 1017.67 1017.50 1017.43
1008.37 1008.00 1007.78 1007.96 1008.35 1008.92 1009.64 1010.38 1010.74 1011.51 1012.38 1012.85 1013.41 1014.52 1016.06 1016.54 1016.74 1016.97 1017.02 1017.08 1017.16 1017.38 1017.35 1017.33 1017.44 1017.63 1017.96 1018.01 1017.96 1018.03 1018.17 1018.26 1018.30 1018.28 1018.31 1018.35 1018.35 1018.36 1018.36 1018.35 1018.32 1018.29 1018.10 1018.01 1017.89 1017.76 1017.60 1017.48 1017.50
1008.28 1007.87 1007.64 1007.74 1008.03 1008.69 1009.71 1010.44 1011.20 1011.64 1012.57 1013.12 1013.51 1014.28 1015.43 1016.30 1016.72 1017.07 1017.23 1017.42 1017.69 1017.46 1017.51 1017.63 1017.79 1017.99 1018.21 1018.05 1018.24 1018.27 1018.42 1018.48 1018.44 1018.44 1018.46 1018.49 1018.41 1018.43 1018.31 1018.21 1018.34 1018.30 1018.12 1018.00 1017.74 1017.54 1017.49 1017.32 1017.40
1008.10 1007.62 1007.19 1007.28 1007.73 1008.41 1009.70 1010.37 1011.60 1012.21 1012.66 1013.47 1013.94 1014.14 1015.03 1016.26 1016.88 1017.14 1017.50 1017.71 1017.71 1017.93 1017.94 1017.88 1018.05 1018.31 1018.44 1018.37 1018.35 1018.47 1018.58 1018.61 1018.62 1018.63 1018.69 1018.55 1018.36 1018.27 1018.12 1018.16 1018.21 1017.97 1017.97 1017.89 1017.66 1017.44 1017.34 1017.20 1017.06
1007.71 1007.26 1006.68 1006.85 1007.29 1008.21 1009.39 1010.17 1011.30 1012.20 1012.96 1013.94 1014.42 1015.06 1015.82 1016.46 1016.95 1017.07 1017.21 1017.46 1017.91 1018.01 1018.07 1018.00 1018.27 1018.41 1018.40 1018.30 1018.51 1018.56 1018.66 1018.68 1018.74 1018.83 1018.83 1018.53 1018.54 1018.50 1018.29 1018.09 1018.07 1018.05 1018.03 1017.74 1017.54 1017.49 1017.43 1017.19 1016.87
1007.29 1006.79 1006.87 1007.02 1007.38 1008.10 1009.27 1010.38 1011.24 1011.97 1012.79 1013.67 1014.16 1014.96 1015.69 1016.29 1016.82 1016.98 1017.04 1017.39 1017.60 1017.76 1017.96 1018.28 1018.31 1018.58 1018.37 1018.49 1018.58 1018.69 1018.79 1018.77 1018.81 1018.88 1018.87 1018.81 1018.52 1018.29 1017.99 1017.83 1017.72 1017.76 1017.58 1017.29 1017.35 1017.29 1017.18 1017.23 1016.97
1006.87 1006.99 1006.95 1007.36 1007.80 1008.49 1009.36 1010.45 1011.33 1012.07 1012.66 1013.18 1014.19 1014.91 1015.54 1016.15 1016.60 1016.69 1017.07 1017.28 1017.71 1017.82 1018.05 1018.17 1018.45 1018.55 1018.57 1018.55 1018.63 1018.75 1018.75 1018.70 1018.62 1018.67 1018.80 1018.60 1018.17 1018.10 1018.14 1017.98 1017.77 1017.77 1017.57 1017.36 1017.28 1017.01 1017.16 1017.03 1016.92
1006.61 1007.13 1007.52 1007.96 1008.46 1009.11 1009.89 1010.64 1011.58 1012.70 1013.06 1013.43 1014.40 1015.30 1015.66 1016.06 1016.65 1016.83 1016.95 1017.26 1017.73 1017.85 1018.03 1018.18 1018.42 1018.43 1018.51 1018.79 1018.75 1018.89 1018.84 1018.78 1018.73 1018.68 1018.68 1018.51 1018.21 1018.27 1018.25 1017.95 1017.85 1017.81 1017.75 1017.39 1017.27 1017.13 1016.89 1016.89 1016.78
1006.92 1007.43 1008.07 1008.47 1008.91 1009.48 1010.04 1011.15 1011.71 1013.41 1013.65 1014.12 1014.75 1015.30 1015.63 1016.00 1016.32 1016.74 1016.90 1017.06 1017.49 1017.69 1017.90 1018.20 1018.33 1018.34 1018.57 1018.65 1018.90 1018.85 1018.90 1018.83 1018.67 1018.57 1018.52 1018.62 1018.45 1018.38 1018.13 1017.93 1017.83 1017.70 1017.86 1017.75 1017.55 1017.34 1017.07 1016.84 1016.68
1007.14 1007.52 1008.33 1008.77 1009.12 1009.50 1009.98 1010.90 1012.01 1013.38 1013.96 1014.43 1014.98 1015.44 1015.83 1016.06 1016.19 1016.29 1016.54 1016.91 1017.22 1017.74 1017.87 1018.12 1018.22 1018.29 1018.49 1018.72 1018.84 1018.83 1018.73 1018.65 1018.64 1018.61 1018.63 1018.53 1018.49 1018.30 1018.23 1017.87 1017.72 1017.76 1017.80 1017.69 1017.43 1017.17 1016.83 1016.71 1016.38
1006.76 1007.30 1007.70 1008.47 1008.80 1009.31 1009.87 1010.20 1012.10 1013.28 1013.88 1014.41 1014.99 1015.50 1015.79 1015.92 1015.84 1016.06 1016.36 1016.63 1017.07 1017.38 1017.81 1018.07 1018.02 1018.22 1018.43 1018.61 1018.69 1018.62 1018.67 1018.70 1018.69 1018.67 1018.56 1018.53 1018.32 1018.21 1018.11 1017.85 1017.71 1017.75 1017.59 1017.41 1017.21 1017.21 1016.90 1016.79 1016.62
1006.63 1006.64 1007.30 1007.90 1008.26 1008.69 1009.56 1009.77 1011.37 1012.61 1013.25 1013.84 1014.31 1014.81 1015.19 1015.40 1015.61 1015.80 1016.07 1016.38 1016.71 1017.23 1017.68 1017.92 1018.13 1018.18 1018.35 1018.48 1018.50 1018.61 1018.75 1018.68 1018.58 1018.52 1018.39 1018.48 1018.25 1018.15 1018.15 1017.92 1017.89 1017.77 1017.44 1017.38 1017.46 1017.28 1017.20 1016.83 1016.67
1005.58 1006.21 1006.73 1006.90 1007.45 1008.21 1008.86 1009.25 1010.58 1011.73 1012.39 1012.90 1013.43 1013.79 1014.19 1014.54 1014.77 1015.21 1015.67 1016.01 1016.50 1017.03 1017.47 1017.78 1018.00 1018.14 1018.32 1018.37 1018.58 1018.53 1018.52 1018.50 1018.52 1018.34 1018.28 1018.32 1018.28 1018.24 1018.12 1017.88 1017.85 1017.79 1017.50 1017.51 1017.55 1017.54 1017.39 1017.22 1017.02
1004.90 1005.51 1005.85 1006.28 1006.75 1007.51 1007.86 1008.45 1009.59 1010.78 1011.54 1011.96 1012.42 1012.86 1013.22 1013.59 1014.03 1014.61 1015.16 1015.63 1016.18 1016.71 1017.17 1017.52 1017.79 1017.96 1018.26 1018.40 1018.41 1018.38 1018.24 1018.31 1018.29 1018.16 1018.35 1018.35 1018.27 1018.11 1018.02 1017.73 1017.67 1017.65 1017.83 1017.81 1017.77 1017.67 1017.53 1017.10 1017.13
1004.84 1005.06 1005.40 1005.95 1006.48 1007.06 1007.34 1007.50 1008.56 1009.58 1009.90 1010.56 1011.09 1011.66 1012.12 1012.68 1013.18 1013.89 1014.51 1015.07 1015.59 1016.07 1016.61 1017.13 1017.42 1017.73 1018.04 1018.19 1018.33 1018.31 1018.37 1018.31 1018.26 1018.13 1018.17 1018.19 1018.15 1018.10 1017.89 1017.96 1017.77 1017.69 1017.62 1018.01 1018.05 1017.90 1017.53 1017.33 1017.50
1004.42 1004.42 1004.78 1005.26 1006.13 1006.70 1006.85 1006.70 1007.51 1008.36 1009.14 1009.92 1010.26 1010.62 1011.04 1011.57 1012.22 1013.04 1013.78 1014.26 1014.92 1015.48 1015.93 1016.40 1016.85 1017.23 1017.59 1017.96 1018.25 1018.41 1018.46 1018.37 1018.20 1018.07 1017.97 1017.97 1018.13 1018.12 1018.03 1017.88 1017.81 1017.78 1017.97 1017.98 1018.14 1018.06 1017.92 1017.42 1017.48
1003.72 1004.00 1004.53 1005.09 1005.41 1005.52 1006.28 1005.26 1005.79 1006.40 1007.47 1008.46 1009.02 1009.47 1009.92 1010.62 1011.41 1012.09 1012.82 1013.44 1013.98 1014.48 1015.15 1015.73 1016.28 1016.71 1017.12 1017.62 1017.87 1018.03 1018.03 1017.96 1017.92 1018.06 1018.08 1018.04 1018.03 1018.00 1017.89 1017.87 1017.80 1017.99 1017.93 1018.20 1018.21 1018.09 1018.11 1017.94 1017.57
1003.24 1003.63 1004.21 1004.73 1005.05 1005.33 1005.63 1005.43 1003.89 1005.04 1005.80 1006.35 1007.25 1007.95 1008.63 1009.44 1010.30 1010.97 1011.75 1012.44 1013.10 1013.77 1014.34 1015.00 1015.65 1016.07 1016.50 1017.04 1017.42 1017.63 1017.80 1017.84 1017.99 1017.99 1018.08 1018.03 1017.87 1017.81 1017.76 1017.71 1017.76 1017.91 1017.85 1018.14 1018.15 1018.22 1018.27 1018.27 1018.09
1003.31 1003.78 1004.55 1005.01 1005.07 1004.70 1004.46 1004.47 1002.17 1003.15 1002.98 1003.95 1005.49 1006.62 1007.40 1008.33 1009.31 1010.11 1010.99 1011.75 1012.34 1013.03 1013.64 1014.23 1014.90 1015.29 1015.89 1016.48 1016.95 1017.29 1017.41 1017.59 1017.76 1017.73 1017.74 1017.72 1017.75 1017.62 1017.65 1017.61 1017.78 1017.92 1017.85 1018.02 1018.15 1018.37 1018.55 1018.69 1018.55
1002.44 1002.75 1003.84 1004.24 1004.55 1003.81 1004.25 1004.00 1001.55 1001.44 1001.80 1002.08 1003.06 1004.77 1006.05 1007.27 1008.33 1009.15 1010.05 1010.88 1011.57 1012.14 1012.85 1013.56 1014.20 1014.55 1015.19 1015.78 1016.29 1016.72 1016.97 1017.30 1017.48 1017.53 1017.37 1017.52 1017.49 1017.46 1017.53 1017.55 1017.75 1017.84 1017.93 1018.06 1018.20 1018.62 1018.90 1019.03 1019.00
1001.49 1001.67 1002.57 1003.01 1003.20 1003.23 1004.00 1002.47 1000.49 1000.37 1000.69 1001.39 1002.06 1003.48 1005.00 1006.23 1007.19 1008.09 1009.04 1009.95 1010.66 1011.28 1012.03 1012.74 1013.32 1013.82 1014.43 1015.09 1015.65 1016.17 1016.50 1016.74 1016.89 1017.11 1017.19 1017.28 1017.35 1017.37 1017.37 1017.44 1017.55 1017.75 1018.06 1018.39 1018.76 1018.96 1019.10 1019.44 1019.59
1001.41 1001.64 1001.96 1002.58 1003.60 1003.02 1002.25 1001.41 1000.28 999.94 1000.17 1000.69 1001.56 1002.87 1004.13 1005.11 1006.04 1007.09 1008.13 1009.07 1009.77 1010.39 1011.09 1011.84 1012.57 1013.13 1013.71 1014.38 1015.09 1015.53 1015.92 1016.25 1016.32 1016.73 1017.03 1016.96 1017.12 1017.15 1017.25 1017.30 1017.71 1018.03 1018.50 1019.01 1019.29 1019.27 1019.43 1019.62 1019.76
1000.09 1000.99 1002.01 1002.20 1002.14 1001.98 1001.28 1000.79 999.67 999.27 999.95 1000.66 1001.19 1002.27 1003.43 1004.33 1005.29 1006.40 1007.33 1008.21 1008.91 1009.62 1010.38 1011.21 1011.83 1012.37 1013.00 1013.76 1014.35 1014.75 1015.20 1015.62 1015.99 1016.34 1016.54 1016.65 1016.80 1016.96 1017.16 1017.50 1017.88 1018.38 1018.77 1019.30 1019.16 1019.39 1019.70 1019.79 1019.85
1000.13 1000.21 1000.62 1000.75 1001.42 1000.95 1000.54 999.28 998.90 998.79 999.43 1000.21 1000.62 1001.75 1002.62 1003.54 1004.43 1005.59 1006.60 1007.53 1008.27 1009.00 1009.71 1010.43 1011.13 1011.70 1012.34 1013.00 1013.56 1014.06 1014.46 1015.05 1015.58 1015.78 1016.03 1016.29 1016.61 1016.83 1017.27 1017.67 1018.07 1018.53 1018.91 1019.23 1019.29 1019.54 1019.73 1019.80 1020.06
998.74 998.88 999.58 999.71 1001.01 1001.23 1000.29 998.87 998.62 998.77 999.11 999.91 1000.53 1001.40 1002.20 1002.91 1003.84 1004.98 1005.95 1006.90 1007.72 1008.36 1009.06 1009.72 1010.44 1011.02 1011.49 1012.17 1012.82 1013.37 1013.97 1014.57 1014.93 1015.26 1015.58 1016.03 1016.35 1016.83 1017.23 1017.81 1018.31 1018.77 1019.09 1019.34 1019.42 1019.53 1019.84 1019.89 1020.03
Wind_Speed
13 10 4 3 1 1 3 4 3 8 5 3 6 5 8 7 5 7 7 9 10 9 8 10 9 12 14 13 12 11 12 11 10 10 10 10 13 10 10 12 14 12 13 13 13 11 10 10 9
9 5 1 0 2 4 3 4 6 6 10 12 11 7 6 6 5 10 9 9 9 8 8 8 8 10 12 11 12 12 12 10 9 10 11 9 11 11 11 12 12 11 12 11 11 10 9 8 7
10 2 2 2 2 5 4 3 8 9 11 6 6 8 4 3 9 5 9 11 9 9 9 9 9 10 9 10 13 11 11 9 8 11 10 10 11 10 10 10 10 10 10 9 8 8 8 7 6
4 1 2 1 6 5 3 9 12 13 7 7 13 9 6 5 5 7 9 11 9 8 7 9 10 10 9 10 11 9 8 10 8 10 8 8 9 9 8 10 8 7 7 7 7 6 6 5 3
3 2 2 2 5 4 8 10 9 7 6 8 3 6 4 4 10 10 11 7 10 8 6 7 9 9 9 9 8 7 8 9 5 8 7 8 8 7 7 6 6 5 5 5 5 6 5 4 4
2 2 1 3 5 6 7 9 10 5 5 7 8 10 4 10 11 9 9 7 8 8 6 6 9 10 8 8 7 6 7 8 7 9 8 7 5 5 4 4 4 4 4 4 4 4 4 6 7
3 1 2 4 5 5 6 7 5 7 9 5 13 6 5 12 11 10 8 8 6 6 6 5 6 8 8 4 7 7 8 9 7 6 4 4 4 4 4 5 5 6 6 6 6 5 5 6 7
2 1 3 3 5 3 8 5 8 5 5 10 10 7 9 12 14 11 8 7 6 5 6 5 5 6 5 4 6 9 7 5 4 3 3 2 4 3 3 5 2 7 7 6 7 7 6 6 4
2 3 4 6 7 5 12 7 5 5 11 5 2 6 15 18 14 11 8 6 7 5 5 5 5 5 5 4 4 4 3 3 2 3 5 2 3 4 5 6 8 8 9 8 7 7 6 5 6
5 3 2 5 7 8 10 9 9 7 10 4 10 14 20 18 14 13 13 11 8 7 7 5 5 6 5 4 3 2 1 2 3 4 4 3 5 4 7 6 9 8 8 5 6 8 4 4 4
5 2 0 3 6 15 12 11 6 13 7 8 17 22 21 19 15 13 13 10 10 9 6 6 6 5 5 4 2 1 0 1 1 3 3 3 3 3 4 3 3 4 4 4 4 4 2 4 4
3 3 2 8 10 11 11 10 10 3 3 10 18 22 22 19 16 14 12 11 10 9 7 7 6 5 5 3 2 0 1 0 1 2 4 3 3 4 4 4 5 4 3 4 3 3 3 2 4
1 5 7 10 12 11 10 8 6 4 2 15 20 21 21 18 15 11 12 11 10 9 9 8 7 6 5 4 1 1 1 1 2 2 3 3 3 3 4 4 4 4 4 4 3 3 4 3 5
7 13 13 10 9 9 9 6 2 4 11 17 20 21 19 17 17 13 13 12 11 10 10 8 7 6 5 3 2 1 1 1 2 3 3 3 3 3 4 4 4 4 4 4 4 4 4 4 4
7 11 9 6 5 4 9 6 4 11 14 17 17 18 17 16 16 16 15 12 12 9 10 9 7 6 5 4 3 3 2 2 2 3 3 3 4 4 4 4 5 5 4 4 3 3 3 3 3
5 5 5 7 8 7 2 3 10 13 16 17 17 15 15 17 18 15 15 13 11 11 11 9 7 7 6 3 3 2 1 2 2 2 3 4 4 1 3 4 4 5 4 5 5 4 5 4 4
1 3 6 4 11 6 6 1 12 14 14 16 18 17 16 16 16 15 16 14 13 12 11 10 8 7 7 4 3 3 3 3 2 3 3 4 5 5 4 4 4 5 5 5 5 4 5 5 5
10 6 5 7 12 12 11 7 12 15 15 15 16 17 17 17 19 18 17 15 13 12 12 10 8 7 5 4 3 3 3 3 3 3 3 5 5 6 3 4 4 4 4 4 4 5 5 5 5
13 9 8 5 4 11 13 8 12 16 15 16 16 16 17 18 18 18 18 17 15 14 13 11 10 9 6 5 4 4 4 3 3 3 3 4 4 6 5 4 5 3 3 5 6 5 6 4 6
9 8 8 2 6 9 5 11 10 18 18 18 18 17 17 17 16 17 18 17 17 16 15 13 12 10 9 6 4 2 1 2 4 3 4 3 5 6 6 7 5 4 4 6 7 6 5 3 5
9 10 7 4 7 4 2 7 10 15 14 16 17 17 17 18 17 17 18 18 17 17 16 15 14 13 11 10 5 3 2 3 4 3 3 2 4 5 7 7 4 3 4 4 4 4 5 5 3
12 12 6 9 8 4 4 5 8 15 18 19 19 19 19 19 18 17 18 18 18 18 16 16 15 14 12 10 8 9 6 6 3 3 3 4 5 6 5 6 4 3 3 3 3 3 3 3 5
8 8 10 7 6 2 6 7 3 6 16 23 22 22 21 20 20 20 19 19 19 16 16 15 14 14 13 11 11 8 9 6 5 5 6 5 4 4 5 6 3 3 2 3 4 4 4 4 3
12 9 6 5 2 7 10 9 8 8 15 17 21 22 21 20 20 19 18 17 16 16 15 14 15 14 13 13 12 12 11 9 7 7 6 5 4 4 5 5 3 2 2 2 4 4 5 3 4
13 11 3 4 6 6 3 7 15 9 8 12 24 24 22 20 19 18 19 18 17 18 17 15 15 15 14 14 13 13 13 11 11 9 7 6 5 5 5 2 3 2 2 4 4 5 5 5 5
22 17 9 8 6 5 3 7 5 3 5 15 15 21 21 21 19 19 19 19 18 18 18 17 16 15 14 14 14 12 12 9 9 9 7 6 5 5 4 2 2 3 5 6 6 5 5 5 4
13 13 12 4 2 4 3 6 14 1 0 12 15 19 21 21 20 20 19 18 18 17 18 18 16 15 15 14 12 12 11 12 10 10 7 6 6 4 4 1 5 6 7 6 5 4 4 4 4
13 18 10 5 7 7 5 6 9 10 2 11 16 19 19 19 19 17 17 18 16 17 16 17 17 17 15 14 13 12 12 12 11 9 9 8 6 5 3 6 7 8 8 6 5 4 4 5 4
10 14 6 11 4 8 5 7 5 10 4 15 17 18 18 18 18 17 16 16 16 15 15 16 16 16 14 14 13 13 12 12 10 10 9 8 6 5 7 8 9 8 7 5 6 5 5 5 6
20 17 18 12 7 2 3 6 2 6 2 15 16 16 16 17 17 16 17 16 16 16 16 16 15 16 15 13 13 13 12 10 11 10 9 7 7 8 9 9 9 8 6 5 5 5 5 5 5
Wind_Direction
150 146 161 210 193 78 91 89 98 124 108 39 81 95 94 45 25 104 136 131 124 124 124 105 98 101 105 104 108 105 102 104 106 115 114 94 103 104 106 92 77 76 73 75 78 73 69 68 60
151 152 212 288 20 60 67 116 142 132 116 105 82 95 46 72 72 124 125 133 125 121 114 107 101 103 102 110 108 113 104 97 100 104 97 99 92 89 86 85 92 91 86 75 79 76 69 61 56
163 22 302 38 23 41 84 143 129 119 135 120 101 46 54 63 103 110 127 133 132 127 126 119 113 108 106 106 96 95 101 97 88 83 86 84 99 102 102 100 94 86 88 86 80 79 74 68 54
169 168 144 41 51 55 47 136 128 133 102 64 113 84 94 47 124 130 135 137 137 134 127 122 119 107 107 109 96 102 100 100 104 102 99 102 102 104 104 89 87 88 84 82 73 63 57 43 64
190 215 59 81 69 61 94 117 143 131 100 124 126 122 73 67 117 122 133 144 145 137 126 127 111 103 88 90 95 104 99 102 106 111 113 90 93 91 77 71 71 67 64 57 56 41 24 1 348
186 279 125 91 79 103 92 118 130 104 117 132 106 110 90 124 131 133 133 139 137 130 118 126 119 105 107 111 110 106 93 118 94 67 68 76 67 59 50 48 34 14 4 358 18 29 1 343 344
292 314 83 120 130 144 131 131 142 123 134 102 130 106 105 144 145 134 130 141 127 107 123 113 114 122 112 102 130 113 84 76 86 97 87 81 56 28 3 359 353 340 329 340 337 335 337 338 337
256 268 147 175 179 133 132 104 113 132 102 121 130 163 157 157 147 138 135 126 112 131 125 118 114 87 95 116 65 93 96 109 116 109 86 59 27 347 349 320 353 309 300 312 315 317 327 319 305
205 225 195 182 182 131 145 133 91 102 135 96 56 151 137 146 145 140 133 131 142 122 136 143 122 101 115 121 111 101 128 118 67 32 12 19 344 328 317 330 309 302 351 347 318 295 299 284 303
222 247 229 183 154 146 147 134 125 136 137 87 102 120 137 150 153 152 162 158 154 154 161 149 135 134 148 143 139 138 104 60 32 21 11 354 347 324 316 332 335 338 344 327 344 358 12 305 337
170 280 141 128 131 140 132 123 127 145 168 174 155 148 151 157 160 165 162 164 166 171 162 153 156 155 166 143 173 128 6 52 41 21 5 356 349 1 1 338 342 336 357 354 356 348 351 338 314
230 37 124 136 135 133 130 125 119 172 61 167 160 155 154 165 166 170 164 167 171 168 160 172 167 174 178 176 179 172 320 352 9 18 355 353 352 1 352 342 348 349 349 342 345 354 7 337 311
174 92 74 118 117 112 124 125 118 57 51 149 153 157 164 166 166 172 169 172 175 169 175 180 171 188 187 191 184 244 233 34 13 331 337 338 343 346 331 332 338 353 355 4 350 334 344 345 345
103 98 111 123 113 123 129 130 174 111 141 144 155 163 168 171 172 172 178 176 187 179 184 171 188 199 183 197 167 197 237 18 322 321 339 323 315 314 324 341 0 9 355 346 338 344 341 347 347
124 103 113 133 133 130 137 151 104 141 149 146 157 164 171 182 180 183 182 185 190 185 183 184 195 186 197 195 218 230 225 341 359 356 2 341 300 271 317 345 351 359 356 333 345 346 344 332 328
115 123 191 171 181 155 283 111 145 158 157 157 160 171 179 189 191 189 190 196 192 191 189 191 199 190 194 182 188 205 257 318 340 334 329 335 355 290 325 343 351 355 352 356 4 3 359 1 342
77 188 214 201 207 163 217 127 157 170 175 169 170 176 183 189 196 195 199 200 196 197 192 202 205 212 207 209 218 241 262 278 300 309 322 345 352 342 327 346 356 348 353 4 357 356 350 352 349
189 204 202 228 197 202 198 230 167 177 184 182 181 181 188 193 199 198 201 204 201 201 203 207 208 213 200 212 236 251 262 259 272 289 310 342 12 10 350 338 345 336 336 355 1 354 359 335 345
195 204 221 227 197 198 227 247 192 183 191 193 192 190 195 200 200 199 200 202 202 204 206 209 210 212 199 204 225 231 250 260 260 280 296 333 356 7 1 335 325 316 357 5 15 355 354 356 356
192 213 216 188 168 215 217 240 201 193 198 197 195 196 198 200 193 197 201 202 202 203 208 209 216 212 211 210 213 233 264 285 285 293 299 355 11 5 352 338 341 337 359 26 18 1 344 347 12
200 216 197 242 146 199 202 236 194 205 203 206 210 204 202 203 196 194 195 197 198 203 205 209 213 216 215 219 211 202 230 246 253 256 283 2 352 3 358 353 349 352 10 23 4 11 3 342 4
210 216 188 163 185 285 214 283 217 200 202 207 208 207 204 203 204 198 196 198 198 204 206 210 212 214 217 209 216 223 235 248 252 279 296 310 340 348 350 10 20 38 38 24 24 28 26 336 7
220 167 190 200 212 214 193 267 245 180 207 210 208 206 205 201 203 203 200 201 203 201 204 208 210 213 215 208 218 219 229 242 259 265 287 297 322 342 8 359 360 36 26 34 32 47 29 36 359
139 110 93 106 221 246 241 235 272 194 222 212 203 205 202 198 199 202 202 201 203 200 203 203 204 212 210 212 213 217 225 233 246 252 266 285 310 315 340 2 37 52 52 47 62 64 54 57 45
187 164 174 191 209 242 95 214 256 235 224 212 193 195 197 194 194 195 198 200 201 201 203 203 204 211 208 210 214 215 225 231 240 252 262 280 292 305 327 6 9 33 81 84 90 88 78 63 62
195 185 209 214 214 220 123 234 248 169 277 213 197 185 184 189 189 192 197 199 201 201 203 204 205 214 208 210 212 216 225 232 237 243 253 261 275 286 285 320 9 107 106 96 106 101 89 75 67
176 210 199 166 81 240 197 258 275 251 134 182 173 172 182 185 185 192 196 199 199 201 204 207 209 214 213 212 210 216 220 226 234 238 240 251 260 265 254 281 124 110 109 108 103 90 89 86 84
194 173 181 214 209 231 212 269 255 274 194 184 165 176 182 183 180 190 196 198 199 202 203 206 211 216 215 212 211 215 216 221 228 235 239 243 244 233 179 142 129 124 122 119 118 108 97 99 86
173 188 221 188 240 220 243 242 226 272 187 197 178 181 177 179 181 188 195 197 199 201 202 206 209 213 213 211 210 214 215 217 221 229 232 234 218 178 153 145 141 141 132 138 110 104 112 102 100
197 194 192 196 176 246 288 264 1 293 238 192 183 183 183 182 182 188 192 191 193 198 201 205 208 208 210 207 207 212 215 213 218 222 222 211 190 154 150 148 139 135 139 126 116 111 111 113 104